Regional Weather Roundup
Issued by NWS Albany, NY

Home | Current Version | Previous Version | Text Only | Print | Product List | Glossary On
Versions: 1 2 3 4 5 6 7 8 9 10 11 12 13 14 15 16 17 18 19 20 21 22 23 24 25 26 27 28 29 30 31 32 33 34 35 36 37 38 39 40 41 42 43 44 45 46 47 48 49 50
958
ASUS41 KALY 262310
RWRALY

NEW YORK STATE HOURLY WEATHER ROUNDUP
NATIONAL WEATHER SERVICE ALBANY NY
700 PM EDT FRI MAY 26 2017

NOTE: "FAIR" INDICATES FEW OR NO CLOUDS BELOW 12,000 FEET WITH NO
SIGNIFICANT WEATHER AND/OR NO OBSTRUCTIONS TO VISIBILITY.

NYZ032-033-038>043-046>054-057>066-NYZ062>081-082-084-270000-
EAST


CITY           SKY/WX    TMP DP  RH WIND       PRES   REMARKS
ALBANY         DRIZZLE   59  56  89 NE7       29.70R
GLENS FALLS    LGT RAIN  57  54  89 CALM      29.70R FOG
POUGHKEEPSIE   LGT RAIN  66  56  70 NW7       29.67R
NEWBURGH       PTSUNNY   68  57  68 NW9       29.70R
MONTGOMERY     CLOUDY    69  53  56 NW10      29.69R
WHITE PLAINS   MOSUNNY   70  53  54 NW15      29.66R
ISLIP          PTSUNNY   73  54  51 W10G21    29.64R
NEW YORK CITY  MOSUNNY   75  51  43 NW18G26   29.65R
CENTRAL PARK   MOSUNNY   72  54  53 MISG      29.69R
$$

NYZ005>009-017-018-044>046-055-056-270000-
CENTRAL


CITY           SKY/WX    TMP DP  RH WIND       PRES   REMARKS
FULTON         CLOUDY    57  55  93 NW7       29.79R
SYRACUSE       CLOUDY    57  55  93 W7        29.78R
ROME           CLOUDY    58  54  86 W13       29.77R
ELMIRA         CLOUDY    61  55  81 NW6       29.79R
BINGHAMTON     CLOUDY    56  54  93 N10       29.78R
MONTICELLO     CLOUDY    61  54  77 NW17G23   29.75R
$$

NYZ026>034-041>043-087-270000-
NORTH


CITY           SKY/WX    TMP DP  RH WIND       PRES   REMARKS
WATERTOWN      CLOUDY    60  53  77 N6        29.77R
FORT DRUM      NOT AVBL
OGDENSBURG     PTSUNNY   57  52  84 NE6       29.78R
MASSENA        LGT RAIN  55  52  89 N6        29.79R
SARANAC LAKE   CLOUDY    50  49  96 N3        29.73R
PLATTSBURGH    CLOUDY    54  50  86 N12       29.73R
$$

NYZ001>004-010>016-019>021-085-270000-
WEST


CITY           SKY/WX    TMP DP  RH WIND       PRES   REMARKS
NIAGARA FALLS  CLOUDY    60  56  86 SW8       29.81R
BUFFALO        LGT RAIN  54  52  93 SW15      29.84R FOG
DUNKIRK        CLOUDY    56  53  90 SW15G22   29.86R
JAMESTOWN      CLOUDY    55  50  82 W9        29.88R
WELLSVILLE     CLOUDY    57  49  74 NW16G23   29.86R
ROCHESTER      LGT RAIN  60  56  86 W9        29.81R
PENN YAN       LGT RAIN  59  54  83 W7        29.80R
$$

             KEY
       WCI = WIND CHILL INDEX
       VSB = VISIBILITY
       HX  = HEAT INDEX
$$




USA.gov is the U.S. government's official web portal to all federal, state and local government web resources and services.